Location: Newark
(26.8229°N, 81.7649°W)
Time: 14:18:17
(UTC+00:00)

Hubble Space Telescope - Pass Details

Date: 01 February 2020
Orbit: 536 x 540 km, 28.5° (Epoch: 28 February)

Event Time Altitude Azimuth Distance (km) Brightness Sun altitude
Exits shadow 11:36:00 10° 269° (W) 1,769 2.8 -8.6°
Maximum altitude 11:40:05 73° 354° (N) 557 0.8 -7.8°
Drops below altitude 10° 11:44:12 10° 80° (E) 1,778 4.6 -6.9°
Sets 11:46:28 0° 82° (E) 2,669 5.7 -6.4°
